Time,TemperatureF,DewpointF,PressureIn,WindDirection,WindDirectionDegrees,WindSpeedMPH,WindSpeedGustMPH,Humidity,HourlyPrecipIn,Conditions,Clouds,dailyrainin,SoftwareType,DateUTC
2013-03-21 00:02:00,33.0,30.0,29.54,ENE,62,1.0,4.0,87,0.00,,,0.16,,2013-03-21 06:02:00,
2013-03-21 00:12:00,33.0,30.0,29.54,ENE,62,1.0,4.0,87,0.00,,,0.16,,2013-03-21 06:12:00,
2013-03-21 00:22:00,33.0,28.0,29.54,NNE,27,1.0,6.0,81,0.00,,,0.16,,2013-03-21 06:22:00,
2013-03-21 00:31:00,33.0,28.0,29.54,NNE,27,1.0,6.0,81,0.00,,,0.16,,2013-03-21 06:31:00,
2013-03-21 00:42:00,33.0,28.0,29.54,NNE,27,1.0,6.0,81,0.00,,,0.16,,2013-03-21 06:42:00,
2013-03-21 00:52:00,33.0,27.0,29.55,NE,46,1.0,13.0,79,0.00,,,0.16,,2013-03-21 06:52:00,
2013-03-21 01:01:00,33.0,27.0,29.55,NE,46,1.0,13.0,79,0.00,,,0.16,,2013-03-21 07:01:00,
2013-03-21 01:12:00,33.0,27.0,29.55,NE,46,1.0,13.0,79,0.00,,,0.16,,2013-03-21 07:12:00,
2013-03-21 01:21:00,32.0,27.0,29.54,West,278,2.0,8.0,80,0.00,,,0.16,,2013-03-21 07:21:00,
2013-03-21 01:32:00,32.0,27.0,29.54,West,278,2.0,8.0,80,0.00,,,0.16,,2013-03-21 07:32:00,
2013-03-21 01:42:00,32.0,27.0,29.54,West,278,2.0,8.0,80,0.00,,,0.16,,2013-03-21 07:42:00,
2013-03-21 01:52:00,32.0,26.0,29.55,ENE,70,1.0,5.0,77,0.00,,,0.16,,2013-03-21 07:52:00,
2013-03-21 02:01:00,32.0,26.0,29.55,ENE,70,1.0,5.0,77,0.00,,,0.16,,2013-03-21 08:01:00,
2013-03-21 02:12:00,31.0,26.0,29.54,ENE,65,1.0,3.0,83,0.00,,,0.16,,2013-03-21 08:12:00,
2013-03-21 02:22:00,31.0,26.0,29.54,ENE,65,1.0,3.0,83,0.00,,,0.16,,2013-03-21 08:22:00,
2013-03-21 02:32:00,31.0,26.0,29.54,ENE,65,1.0,3.0,83,0.00,,,0.16,,2013-03-21 08:32:00,
2013-03-21 02:42:00,31.0,26.0,29.54,ENE,65,1.0,3.0,83,0.00,,,0.16,,2013-03-21 08:42:00,
2013-03-21 02:52:00,31.0,25.0,29.54,North,355,2.0,8.0,77,0.00,,,0.16,,2013-03-21 08:52:00,
2013-03-21 03:01:00,31.0,25.0,29.54,North,355,2.0,8.0,77,0.00,,,0.16,,2013-03-21 09:01:00,
2013-03-21 03:11:00,31.0,25.0,29.54,North,355,2.0,8.0,77,0.00,,,0.16,,2013-03-21 09:11:00,
2013-03-21 03:21:00,31.0,24.0,29.56,NE,53,1.0,5.0,74,0.00,,,0.16,,2013-03-21 09:21:00,
2013-03-21 03:32:00,31.0,24.0,29.56,NE,53,1.0,5.0,74,0.00,,,0.16,,2013-03-21 09:32:00,
2013-03-21 03:43:00,31.0,24.0,29.56,NE,53,1.0,5.0,74,0.00,,,0.16,,2013-03-21 09:43:00,
2013-03-21 03:53:00,30.0,22.0,29.56,NE,40,2.0,5.0,71,0.00,,,0.16,,2013-03-21 09:53:00,
2013-03-21 04:02:00,30.0,22.0,29.56,NE,40,2.0,5.0,71,0.00,,,0.16,,2013-03-21 10:02:00,
2013-03-21 04:12:00,30.0,22.0,29.56,NE,40,2.0,5.0,71,0.00,,,0.16,,2013-03-21 10:12:00,
2013-03-21 04:22:00,30.0,20.0,29.57,NNE,19,3.0,14.0,66,0.00,,,0.16,,2013-03-21 10:22:00,
2013-03-21 04:32:00,30.0,20.0,29.57,NNE,19,3.0,14.0,66,0.00,,,0.16,,2013-03-21 10:32:00,
2013-03-21 04:42:00,30.0,20.0,29.57,NNE,19,3.0,14.0,66,0.00,,,0.16,,2013-03-21 10:42:00,
2013-03-21 04:53:00,30.0,20.0,29.58,ESE,111,0.0,4.0,67,0.00,,,0.16,,2013-03-21 10:53:00,
2013-03-21 05:02:00,30.0,20.0,29.58,ESE,111,0.0,4.0,67,0.00,,,0.16,,2013-03-21 11:02:00,
2013-03-21 05:12:00,30.0,20.0,29.58,ESE,111,0.0,4.0,67,0.00,,,0.16,,2013-03-21 11:12:00,
2013-03-21 05:22:00,30.0,21.0,29.58,NNE,20,1.0,3.0,69,0.00,,,0.16,,2013-03-21 11:22:00,
2013-03-21 05:32:00,30.0,21.0,29.58,NNE,20,1.0,3.0,69,0.00,,,0.16,,2013-03-21 11:32:00,
2013-03-21 05:43:00,30.0,21.0,29.58,NNE,20,1.0,3.0,69,0.00,,,0.16,,2013-03-21 11:43:00,
2013-03-21 05:52:00,30.0,19.0,29.59,ESE,111,1.0,7.0,63,0.00,,,0.16,,2013-03-21 11:52:00,
2013-03-21 06:01:00,30.0,19.0,29.59,ESE,111,1.0,7.0,63,0.00,,,0.16,,2013-03-21 12:01:00,
2013-03-21 06:12:00,30.0,19.0,29.59,ESE,111,1.0,7.0,63,0.00,,,0.16,,2013-03-21 12:12:00,
2013-03-21 06:21:00,30.0,19.0,29.61,NNE,21,1.0,5.0,63,0.00,,,0.16,,2013-03-21 12:21:00,
2013-03-21 06:32:00,30.0,19.0,29.61,NNE,21,1.0,5.0,63,0.00,,,0.16,,2013-03-21 12:32:00,
2013-03-21 06:43:00,30.0,19.0,29.61,NNE,21,1.0,5.0,63,0.00,,,0.16,,2013-03-21 12:43:00,
2013-03-21 06:52:00,29.0,19.0,29.64,NE,51,0.0,3.0,65,0.00,,,0.16,,2013-03-21 12:52:00,
2013-03-21 07:02:00,29.0,19.0,29.64,NE,51,0.0,3.0,65,0.00,,,0.16,,2013-03-21 13:02:00,
2013-03-21 07:12:00,29.0,19.0,29.64,NE,51,0.0,3.0,65,0.00,,,0.16,,2013-03-21 13:12:00,
2013-03-21 07:22:00,29.0,17.0,29.65,North,5,0.0,9.0,61,0.00,,,0.16,,2013-03-21 13:22:00,
2013-03-21 07:31:00,29.0,17.0,29.65,North,5,0.0,9.0,61,0.00,,,0.16,,2013-03-21 13:31:00,
2013-03-21 07:42:00,29.0,17.0,29.65,North,5,0.0,9.0,61,0.00,,,0.16,,2013-03-21 13:42:00,
2013-03-21 07:52:00,28.0,17.0,29.65,NNE,27,1.0,10.0,62,0.00,,,0.16,,2013-03-21 13:52:00,
2013-03-21 08:02:00,28.0,17.0,29.65,NNE,27,1.0,10.0,62,0.00,,,0.16,,2013-03-21 14:02:00,
2013-03-21 08:12:00,28.0,17.0,29.67,NNW,342,2.0,12.0,63,0.00,,,0.16,,2013-03-21 14:12:00,
2013-03-21 08:21:00,28.0,17.0,29.67,NNW,342,2.0,12.0,63,0.00,,,0.16,,2013-03-21 14:21:00,
2013-03-21 08:32:00,28.0,17.0,29.67,NNW,342,2.0,12.0,63,0.00,,,0.16,,2013-03-21 14:32:00,
2013-03-21 08:42:00,28.0,17.0,29.67,NNW,342,2.0,12.0,63,0.00,,,0.16,,2013-03-21 14:42:00,
2013-03-21 08:52:00,28.0,18.0,29.68,East,90,0.0,4.0,65,0.00,,,0.16,,2013-03-21 14:52:00,
2013-03-21 09:02:00,28.0,18.0,29.68,East,90,0.0,4.0,65,0.00,,,0.16,,2013-03-21 15:02:00,
2013-03-21 09:12:00,28.0,16.0,29.68,ESE,111,2.0,9.0,60,0.00,,,0.16,,2013-03-21 15:12:00,
2013-03-21 09:21:00,28.0,16.0,29.68,ESE,111,2.0,9.0,60,0.00,,,0.16,,2013-03-21 15:21:00,
2013-03-21 09:32:00,28.0,16.0,29.68,ESE,111,2.0,9.0,60,0.00,,,0.16,,2013-03-21 15:32:00,
2013-03-21 09:42:00,28.0,16.0,29.68,ESE,111,2.0,9.0,60,0.00,,,0.16,,2013-03-21 15:42:00,
2013-03-21 09:53:00,28.0,16.0,29.68,ESE,111,2.0,9.0,60,0.00,,,0.16,,2013-03-21 15:53:00,
2013-03-21 10:03:00,29.0,15.0,29.69,SE,134,3.0,10.0,55,0.00,,,0.16,,2013-03-21 16:03:00,
2013-03-21 10:12:00,29.0,15.0,29.69,SE,134,3.0,10.0,55,0.00,,,0.16,,2013-03-21 16:12:00,
2013-03-21 10:22:00,29.0,15.0,29.70,West,259,2.0,13.0,56,0.00,,,0.16,,2013-03-21 16:22:00,
2013-03-21 10:32:00,29.0,15.0,29.70,West,259,2.0,13.0,56,0.00,,,0.16,,2013-03-21 16:32:00,
2013-03-21 10:42:00,29.0,15.0,29.70,West,259,2.0,13.0,56,0.00,,,0.16,,2013-03-21 16:42:00,
2013-03-21 10:53:00,30.0,17.0,29.69,NE,38,2.0,9.0,58,0.00,,,0.16,,2013-03-21 16:53:00,
2013-03-21 11:01:00,30.0,17.0,29.69,NE,38,2.0,9.0,58,0.00,,,0.16,,2013-03-21 17:01:00,
2013-03-21 11:12:00,30.0,17.0,29.69,NE,38,2.0,9.0,58,0.00,,,0.16,,2013-03-21 17:12:00,
2013-03-21 11:22:00,31.0,15.0,29.72,NE,55,1.0,5.0,51,0.00,,,0.16,,2013-03-21 17:22:00,
2013-03-21 11:32:00,31.0,15.0,29.72,NE,55,1.0,5.0,51,0.00,,,0.16,,2013-03-21 17:32:00,
2013-03-21 11:43:00,31.0,15.0,29.72,NE,55,1.0,5.0,51,0.00,,,0.16,,2013-03-21 17:43:00,
2013-03-21 11:53:00,32.0,15.0,29.72,NNE,21,1.0,5.0,48,0.01,,,0.16,,2013-03-21 17:53:00,
2013-03-21 12:01:00,32.0,15.0,29.72,NNE,21,1.0,5.0,48,0.01,,,0.16,,2013-03-21 18:01:00,
2013-03-21 12:12:00,32.0,15.0,29.72,NNE,21,1.0,5.0,48,0.01,,,0.16,,2013-03-21 18:12:00,
2013-03-21 12:21:00,32.0,14.0,29.73,East,80,1.0,6.0,47,0.02,,,0.17,,2013-03-21 18:21:00,
2013-03-21 12:32:00,32.0,14.0,29.73,East,80,1.0,6.0,47,0.02,,,0.17,,2013-03-21 18:32:00,
2013-03-21 12:42:00,32.0,14.0,29.73,East,80,1.0,6.0,47,0.02,,,0.17,,2013-03-21 18:42:00,
2013-03-21 12:52:00,32.0,16.0,29.73,North,360,1.0,6.0,51,0.01,,,0.17,,2013-03-21 18:52:00,
2013-03-21 13:01:00,32.0,16.0,29.73,North,360,1.0,6.0,51,0.01,,,0.17,,2013-03-21 19:01:00,
2013-03-21 13:12:00,32.0,16.0,29.73,North,360,1.0,6.0,51,0.01,,,0.17,,2013-03-21 19:12:00,
2013-03-21 13:22:00,33.0,15.0,29.73,NNW,338,2.0,5.0,47,0.01,,,0.18,,2013-03-21 19:22:00,
2013-03-21 13:31:00,33.0,15.0,29.73,NNW,338,2.0,5.0,47,0.01,,,0.18,,2013-03-21 19:31:00,
2013-03-21 13:43:00,33.0,15.0,29.73,NNW,338,2.0,5.0,47,0.01,,,0.18,,2013-03-21 19:43:00,
2013-03-21 13:52:00,33.0,12.0,29.74,NE,38,1.0,9.0,42,0.01,,,0.18,,2013-03-21 19:52:00,
2013-03-21 14:02:00,33.0,12.0,29.74,NE,38,1.0,9.0,42,0.01,,,0.18,,2013-03-21 20:02:00,
2013-03-21 14:12:00,33.0,12.0,29.74,NE,38,1.0,9.0,42,0.01,,,0.18,,2013-03-21 20:12:00,
2013-03-21 14:22:00,33.0,12.0,29.74,NNW,348,2.0,10.0,41,0.00,,,0.18,,2013-03-21 20:22:00,
2013-03-21 14:42:00,33.0,12.0,29.74,NNW,348,2.0,10.0,41,0.00,,,0.18,,2013-03-21 20:42:00,
2013-03-21 14:53:00,34.0,13.0,29.74,NNE,17,2.0,6.0,42,0.00,,,0.18,,2013-03-21 20:53:00,
2013-03-21 15:01:00,34.0,13.0,29.74,NNE,17,2.0,6.0,42,0.00,,,0.18,,2013-03-21 21:01:00,
2013-03-21 15:12:00,34.0,13.0,29.74,NNE,17,2.0,6.0,42,0.00,,,0.18,,2013-03-21 21:12:00,
2013-03-21 15:21:00,33.0,11.0,29.74,SE,127,2.0,8.0,40,0.00,,,0.18,,2013-03-21 21:21:00,
2013-03-21 15:32:00,33.0,11.0,29.74,SE,127,2.0,8.0,40,0.00,,,0.18,,2013-03-21 21:32:00,
2013-03-21 15:43:00,33.0,11.0,29.74,SE,127,2.0,8.0,40,0.00,,,0.18,,2013-03-21 21:43:00,
2013-03-21 15:53:00,34.0,14.0,29.74,NE,55,1.0,9.0,44,0.00,,,0.18,,2013-03-21 21:53:00,
2013-03-21 16:02:00,34.0,14.0,29.74,NE,55,1.0,9.0,44,0.00,,,0.18,,2013-03-21 22:02:00,
2013-03-21 16:12:00,34.0,14.0,29.74,NE,55,1.0,9.0,44,0.00,,,0.18,,2013-03-21 22:12:00,
2013-03-21 16:22:00,33.0,13.0,29.73,East,92,1.0,17.0,43,0.00,,,0.18,,2013-03-21 22:22:00,
2013-03-21 16:33:00,33.0,13.0,29.73,East,92,1.0,17.0,43,0.00,,,0.18,,2013-03-21 22:33:00,
2013-03-21 16:42:00,33.0,13.0,29.73,East,92,1.0,17.0,43,0.00,,,0.18,,2013-03-21 22:42:00,
2013-03-21 16:52:00,34.0,14.0,29.75,SE,146,3.0,12.0,43,0.00,,,0.18,,2013-03-21 22:52:00,
2013-03-21 17:02:00,34.0,14.0,29.75,SE,146,3.0,12.0,43,0.00,,,0.18,,2013-03-21 23:02:00,
2013-03-21 17:12:00,34.0,14.0,29.75,SE,146,3.0,12.0,43,0.00,,,0.18,,2013-03-21 23:12:00,
2013-03-21 17:21:00,33.0,13.0,29.74,South,169,2.0,6.0,44,0.00,,,0.18,,2013-03-21 23:21:00,
2013-03-21 17:32:00,33.0,13.0,29.74,South,169,2.0,6.0,44,0.00,,,0.18,,2013-03-21 23:32:00,
2013-03-21 17:43:00,33.0,13.0,29.74,South,169,2.0,6.0,44,0.00,,,0.18,,2013-03-21 23:43:00,
2013-03-21 17:53:00,33.0,15.0,29.75,SE,126,0.0,3.0,46,0.00,,,0.18,,2013-03-21 23:53:00,
2013-03-21 18:01:00,33.0,15.0,29.75,SE,126,0.0,3.0,46,0.00,,,0.18,,2013-03-22 00:01:00,
2013-03-21 18:12:00,33.0,15.0,29.75,SE,126,0.0,3.0,46,0.00,,,0.18,,2013-03-22 00:12:00,
2013-03-21 18:22:00,33.0,14.0,29.75,NE,46,2.0,5.0,45,0.00,,,0.18,,2013-03-22 00:22:00,
2013-03-21 18:31:00,33.0,14.0,29.75,NE,46,2.0,5.0,45,0.00,,,0.18,,2013-03-22 00:31:00,
2013-03-21 18:42:00,33.0,14.0,29.75,NE,46,2.0,5.0,45,0.00,,,0.18,,2013-03-22 00:42:00,
2013-03-21 18:52:00,32.0,15.0,29.76,WNW,296,0.0,3.0,48,0.00,,,0.05,,2013-03-22 00:52:00,
2013-03-21 19:01:00,32.0,15.0,29.76,WNW,296,0.0,3.0,48,0.00,,,0.05,,2013-03-22 01:01:00,
2013-03-21 19:12:00,32.0,15.0,29.76,WNW,296,0.0,3.0,48,0.00,,,0.05,,2013-03-22 01:12:00,
2013-03-21 19:21:00,32.0,15.0,29.76,NW,316,2.0,4.0,49,0.00,,,0.05,,2013-03-22 01:21:00,
2013-03-21 19:31:00,32.0,15.0,29.76,NW,316,2.0,4.0,49,0.00,,,0.05,,2013-03-22 01:31:00,
2013-03-21 19:43:00,32.0,15.0,29.76,NW,316,2.0,4.0,49,0.00,,,0.05,,2013-03-22 01:43:00,
2013-03-21 19:53:00,30.0,14.0,29.78,NE,46,0.0,3.0,51,0.00,,,0.04,,2013-03-22 01:53:00,
2013-03-21 20:02:00,30.0,14.0,29.78,NE,46,0.0,3.0,51,0.00,,,0.04,,2013-03-22 02:02:00,
2013-03-21 20:21:00,30.0,15.0,29.78,NNE,32,0.0,5.0,53,0.00,,,0.04,,2013-03-22 02:21:00,
2013-03-21 20:31:00,30.0,15.0,29.78,NNE,32,0.0,5.0,53,0.00,,,0.04,,2013-03-22 02:31:00,
2013-03-21 20:43:00,30.0,15.0,29.78,NNE,32,0.0,5.0,53,0.00,,,0.04,,2013-03-22 02:43:00,
2013-03-21 20:52:00,29.0,16.0,29.77,NNE,26,1.0,3.0,59,0.00,,,0.04,,2013-03-22 02:52:00,
2013-03-21 21:01:00,29.0,16.0,29.77,NNE,26,1.0,3.0,59,0.00,,,0.04,,2013-03-22 03:01:00,
2013-03-21 21:12:00,29.0,16.0,29.77,NNE,26,1.0,3.0,59,0.00,,,0.04,,2013-03-22 03:12:00,
2013-03-21 21:21:00,28.0,16.0,29.78,ENE,61,1.0,6.0,60,0.00,,,0.04,,2013-03-22 03:21:00,
2013-03-21 21:32:00,28.0,16.0,29.78,ENE,61,1.0,6.0,60,0.00,,,0.04,,2013-03-22 03:32:00,
2013-03-21 21:43:00,28.0,16.0,29.78,ENE,61,1.0,6.0,60,0.00,,,0.04,,2013-03-22 03:43:00,
2013-03-21 21:53:00,27.0,16.0,29.78,NNW,346,0.0,4.0,62,0.00,,,0.03,,2013-03-22 03:53:00,
2013-03-21 22:02:00,27.0,16.0,29.78,NNW,346,0.0,4.0,62,0.00,,,0.03,,2013-03-22 04:02:00,
2013-03-21 22:12:00,27.0,16.0,29.78,NNW,346,0.0,4.0,62,0.00,,,0.03,,2013-03-22 04:12:00,
2013-03-21 22:22:00,27.0,16.0,29.79,NNW,345,0.0,3.0,64,0.00,,,0.03,,2013-03-22 04:22:00,
2013-03-21 22:32:00,27.0,16.0,29.79,NNW,345,0.0,3.0,64,0.00,,,0.03,,2013-03-22 04:32:00,
2013-03-21 22:43:00,27.0,16.0,29.79,NNW,345,0.0,3.0,64,0.00,,,0.03,,2013-03-22 04:43:00,
2013-03-21 22:52:00,26.0,17.0,29.79,North,355,0.0,3.0,67,0.00,,,0.03,,2013-03-22 04:52:00,
2013-03-21 23:02:00,26.0,17.0,29.79,North,355,0.0,3.0,67,0.00,,,0.03,,2013-03-22 05:02:00,
2013-03-21 23:12:00,26.0,17.0,29.79,North,355,0.0,3.0,67,0.00,,,0.03,,2013-03-22 05:12:00,
2013-03-21 23:22:00,26.0,17.0,29.79,North,355,0.0,1.0,68,0.00,,,0.03,,2013-03-22 05:22:00,
2013-03-21 23:32:00,26.0,17.0,29.79,North,355,0.0,1.0,68,0.00,,,0.03,,2013-03-22 05:32:00,
2013-03-21 23:42:00,26.0,17.0,29.79,North,355,0.0,1.0,68,0.00,,,0.03,,2013-03-22 05:42:00,
2013-03-21 23:52:00,25.0,16.0,29.80,North,355,0.0,0.0,68,0.00,,,0.03,,2013-03-22 05:52:00,